SFAL

Port Stanley Airport

Airport
ICAO code
SFAL
IATA Code
PSY
Summary
ICAO Region
CARSAM
ICAO Territory
Location

Stanley, Falkland Islands

Serving
Stanley
Elevation
75 ft
Coordinates
51° 41' 8" S , 57° 46' 40" W
KCC
Metar
SFAL 271650Z 03012KT 9999 BKNO03 11/09 Q1012

Port Stanley Airport is a STOL port in the Falkland Islands, two miles outside the capital, Stanley. The airport is the only civil-operated airport in the islands with a paved runway. The airport is operated by the Government of the Falkland Islands, and is only used for internal flights between the Islands. International flights use Mount Pleasant Airport which is operated by the Royal Air Force.

Climatology

(Köppen climate classification Cfc)

Runways

Designator Length Width Surface Rops
18/36 338 13 ASP No/No
9/27 918 19 ASP No/No

Airport map

Aerial View

SKYbrary Partners:

Safety knowledge contributed by: